When you browse on this site, cookies collect data to enhance your experience and personalize the content and advertising you see.
Visit our Privacy Policy to learn more. By continuing to use the site, you agree to this use of cookies and data.
  • In Austria
  • List of Countries
  • For 7 days
  • Water Temperature
  • Weather Map
  • News
  • Weather Widgets
  • user-avatar
    Login

    Hourly Weather Ixmiquilpan

    Today, 16 December, Monday

    Time Temperature Precipitation Wind Pressure Humidity
    00:00 +16°C° 0 mm 1 mps 620 mmHg 50%
    01:00 +16°C° 0 mm 1 mps 620 mmHg 50%
    02:00 +15°C° 0 mm 2 mps 620 mmHg 51%
    03:00 +15°C° 0 mm 2 mps 620 mmHg 56%
    04:00 +15°C° 0 mm 1 mps 619 mmHg 60%
    05:00 +14°C° 0 mm 1 mps 619 mmHg 64%
    06:00 +16°C° 0 mm 1 mps 620 mmHg 60%
    07:00 +18°C° 0 mm 1 mps 621 mmHg 56%
    08:00 +19°C° 0 mm 1 mps 622 mmHg 51%
    09:00 +21°C° 0 mm 1 mps 622 mmHg 46%
    10:00 +23°C° 0 mm 1 mps 622 mmHg 41%
    11:00 +24°C° 0 mm 1 mps 623 mmHg 35%
    12:00 +25°C° 0 mm 1 mps 622 mmHg 33%
    13:00 +26°C° 0 mm 1 mps 622 mmHg 30%
    14:00 +27°C° 0 mm 1 mps 621 mmHg 27%
    15:00 +25°C° 0 mm 1 mps 621 mmHg 32%
    16:00 +24°C° 0 mm 2 mps 621 mmHg 36%
    17:00 +21°C° 0 mm 2 mps 620 mmHg 41%
    18:00 +20°C° 0 mm 2 mps 621 mmHg 50%
    19:00 +19°C° 0 mm 2 mps 621 mmHg 58%
    20:00 +18°C° 0 mm 2 mps 622 mmHg 67%
    21:00 +17°C° 0 mm 2 mps 622 mmHg 70%
    22:00 +16°C° 0 mm 2 mps 622 mmHg 73%
    23:00 +15°C° 0 mm 1 mps 622 mmHg 76%

    Tomorrow, 17 December, Tuesday

    Time Temperature Precipitation Wind Pressure Humidity
    00:00 +15°C° 0 mm 1 mps 621 mmHg 79%
    01:00 +14°C° 0 mm 1 mps 621 mmHg 82%
    02:00 +13°C° 0 mm 1 mps 621 mmHg 85%
    03:00 +13°C° 0 mm 1 mps 621 mmHg 87%
    04:00 +13°C° 0 mm 1 mps 621 mmHg 90%
    05:00 +13°C° 0 mm 1 mps 621 mmHg 92%
    06:00 +13°C° 0 mm 1 mps 622 mmHg 89%
    07:00 +14°C° 0 mm 1 mps 622 mmHg 86%
    08:00 +14°C° 0 mm 2 mps 623 mmHg 83%
    09:00 +15°C° 0 mm 2 mps 623 mmHg 78%
    10:00 +15°C° 0 mm 2 mps 623 mmHg 74%
    11:00 +16°C° 0 mm 3 mps 623 mmHg 69%
    12:00 +16°C° 0 mm 3 mps 623 mmHg 67%
    13:00 +17°C° 0 mm 3 mps 622 mmHg 65%
    14:00 +17°C° 0 mm 4 mps 622 mmHg 63%
    15:00 +15°C° 0 mm 4 mps 621 mmHg 69%
    16:00 +13°C° 0 mm 3 mps 621 mmHg 74%
    17:00 +12°C° 0 mm 3 mps 621 mmHg 79%
    18:00 +11°C° 0 mm 3 mps 622 mmHg 80%
    19:00 +10°C° 0 mm 3 mps 622 mmHg 81%
    20:00 +10°C° 0 mm 3 mps 623 mmHg 82%
    21:00 +9°C° 0 mm 2 mps 623 mmHg 82%
    22:00 +9°C° 0 mm 2 mps 623 mmHg 82%
    23:00 +8°C° 0 mm 2 mps 623 mmHg 83%

    Day after tomorrow, 18 December, Wednesday

    Time Temperature Precipitation Wind Pressure Humidity
    00:00 +8°C° 0 mm 2 mps 622 mmHg 83%
    01:00 +7°C° 0 mm 2 mps 622 mmHg 82%
    02:00 +7°C° 0 mm 2 mps 622 mmHg 82%
    03:00 +6°C° 0 mm 2 mps 622 mmHg 82%
    04:00 +6°C° 0 mm 2 mps 622 mmHg 81%
    05:00 +5°C° 0 mm 2 mps 622 mmHg 80%
    06:00 +5°C° 0 mm 2 mps 622 mmHg 79%
    07:00 +5°C° 0 mm 2 mps 623 mmHg 77%
    08:00 +5°C° 0 mm 2 mps 623 mmHg 75%
    09:00 +7°C° 0 mm 2 mps 623 mmHg 71%
    10:00 +8°C° 0 mm 2 mps 623 mmHg 68%
    11:00 +9°C° 0 mm 2 mps 623 mmHg 64%
    12:00 +10°C° 0 mm 2 mps 622 mmHg 61%
    13:00 +11°C° 0 mm 3 mps 622 mmHg 59%
    14:00 +12°C° 0 mm 3 mps 622 mmHg 56%
    15:00 +11°C° 0 mm 3 mps 622 mmHg 59%
    16:00 +10°C° 0 mm 3 mps 622 mmHg 61%
    17:00 +9°C° 0 mm 3 mps 621 mmHg 64%
    18:00 +8°C° 0 mm 2 mps 622 mmHg 67%
    19:00 +7°C° 0 mm 2 mps 622 mmHg 70%
    20:00 +7°C° 0 mm 1 mps 622 mmHg 73%
    21:00 +7°C° 0 mm 1 mps 621 mmHg 75%
    22:00 +7°C° 0 mm 1 mps 621 mmHg 77%
    23:00 +7°C° 0 mm 1 mps 621 mmHg 79%

    19 December, Thursday

    Time Temperature Precipitation Wind Pressure Humidity
    00:00 +6°C° 0 mm 1 mps 621 mmHg 81%
    01:00 +6°C° 0 mm 1 mps 621 mmHg 83%
    02:00 +6°C° 0 mm 1 mps 620 mmHg 85%
    03:00 +6°C° 0 mm 1 mps 620 mmHg 86%
    04:00 +6°C° 0 mm 1 mps 620 mmHg 87%
    05:00 +5°C° 0 mm 0 mps 620 mmHg 88%
    06:00 +8°C° 0 mm 1 mps 621 mmHg 83%
    07:00 +9°C° 0 mm 1 mps 622 mmHg 77%
    08:00 +10°C° 0 mm 1 mps 623 mmHg 72%
    09:00 +13°C° 0 mm 1 mps 623 mmHg 65%
    10:00 +15°C° 0 mm 1 mps 623 mmHg 59%
    11:00 +18°C° 0 mm 1 mps 624 mmHg 53%
    12:00 +19°C° 0 mm 1 mps 623 mmHg 51%
    13:00 +19°C° 0 mm 2 mps 623 mmHg 48%
    14:00 +20°C° 0 mm 2 mps 622 mmHg 46%
    15:00 +19°C° 0 mm 2 mps 622 mmHg 52%
    16:00 +17°C° 0 mm 2 mps 622 mmHg 58%
    17:00 +16°C° 0 mm 2 mps 621 mmHg 65%
    18:00 +15°C° 0 mm 2 mps 622 mmHg 70%
    19:00 +14°C° 0 mm 1 mps 622 mmHg 75%
    20:00 +13°C° 0 mm 1 mps 622 mmHg 80%
    21:00 +12°C° 0 mm 0 mps 622 mmHg 80%
    22:00 +12°C° 0 mm 0 mps 622 mmHg 81%
    23:00 +12°C° 0 mm 0 mps 622 mmHg 81%

    20 December, Friday

    Time Temperature Precipitation Wind Pressure Humidity
    00:00 +12°C° 0 mm 0 mps 621 mmHg 81%
    01:00 +11°C° 0 mm 0 mps 621 mmHg 82%
    02:00 +11°C° 0 mm 0 mps 621 mmHg 82%
    03:00 +11°C° 0 mm 0 mps 621 mmHg 83%
    04:00 +11°C° 0 mm 0 mps 621 mmHg 84%
    05:00 +11°C° 0 mm 0 mps 621 mmHg 84%
    06:00 +12°C° 0 mm 0 mps 622 mmHg 78%
    07:00 +13°C° 0 mm 0 mps 623 mmHg 72%
    08:00 +15°C° 0 mm 0 mps 624 mmHg 65%
    09:00 +18°C° 0 mm 1 mps 624 mmHg 61%
    10:00 +19°C° 0 mm 1 mps 624 mmHg 57%
    11:00 +19°C° 0 mm 2 mps 625 mmHg 52%
    12:00 +19°C° 0 mm 3 mps 624 mmHg 53%
    13:00 +18°C° 0 mm 4 mps 624 mmHg 53%
    14:00 +18°C° 0 mm 4 mps 623 mmHg 54%
    15:00 +17°C° 0 mm 4 mps 623 mmHg 59%
    16:00 +14°C° 0 mm 4 mps 623 mmHg 65%
    17:00 +13°C° 0 mm 3 mps 623 mmHg 70%
    18:00 +12°C° 0 mm 3 mps 624 mmHg 74%
    19:00 +12°C° 0 mm 3 mps 624 mmHg 78%
    20:00 +11°C° 0 mm 3 mps 624 mmHg 82%
    21:00 +12°C° 0 mm 2 mps 625 mmHg 82%
    22:00 +12°C° 0 mm 2 mps 625 mmHg 83%
    23:00 +12°C° 0 mm 2 mps 625 mmHg 83%

    21 December, Saturday

    Time Temperature Precipitation Wind Pressure Humidity
    00:00 +10°C° 0.1 mm 2 mps 625 mmHg 84%
    01:00 +10°C° 0.1 mm 2 mps 624 mmHg 86%
    02:00 +10°C° 0.1 mm 2 mps 624 mmHg 88%
    03:00 +10°C° 0.1 mm 2 mps 624 mmHg 88%
    04:00 +10°C° 0.1 mm 2 mps 624 mmHg 89%
    05:00 +9°C° 0.1 mm 3 mps 624 mmHg 90%
    06:00 +9°C° 0 mm 2 mps 624 mmHg 89%
    07:00 +9°C° 0 mm 2 mps 624 mmHg 88%
    08:00 +9°C° 0 mm 2 mps 625 mmHg 87%
    09:00 +9°C° 0.1 mm 2 mps 625 mmHg 85%
    10:00 +10°C° 0.1 mm 2 mps 625 mmHg 83%
    11:00 +10°C° 0.1 mm 3 mps 624 mmHg 82%
    12:00 +10°C° 0 mm 2 mps 624 mmHg 80%
    13:00 +10°C° 0 mm 2 mps 624 mmHg 78%
    14:00 +10°C° 0 mm 2 mps 623 mmHg 77%
    15:00 +10°C° 0.1 mm 2 mps 623 mmHg 79%
    16:00 +10°C° 0.1 mm 2 mps 623 mmHg 81%
    17:00 +9°C° 0.1 mm 2 mps 623 mmHg 84%
    18:00 +9°C° 0.3 mm 2 mps 624 mmHg 85%
    19:00 +10°C° 0.3 mm 1 mps 624 mmHg 86%
    20:00 +10°C° 0.3 mm 1 mps 624 mmHg 88%
    21:00 +10°C° 0 mm 1 mps 624 mmHg 88%
    22:00 +10°C° 0 mm 1 mps 624 mmHg 87%
    23:00 +10°C° 0 mm 1 mps 624 mmHg 87%
    Show more